Regional Weather Roundup
Issued by NWS Goodland, KS

Home | Current Version | Previous Version | Text Only | Print | Product List | Glossary On
Versions: 1 2 3 4 5 6 7 8 9 10 11 12 13 14 15 16 17 18 19 20 21 22 23 24 25 26 27 28 29 30 31 32 33 34 35 36 37 38 39 40 41 42 43 44 45 46 47 48 49 50
000
ASUS43 KGLD 260608
RWRGLD

GOODLAND FORECAST AREA HOURLY WEATHER ROUNDUP
NATIONAL WEATHER SERVICE GOODLAND KS
1200 AM MDT SUN OCT 26 2014

...OFFICIAL OBSERVATIONS...

CITY           SKY/WX    TMP DP  RH WIND       PRES   REMARKS
GOODLAND KS    CLEAR     52  40  63 S8        29.90F
HILL CITY KS   CLEAR     60  49  66 E5        29.88F
IMPERIAL NEB   CLEAR     53  49  86 E6        29.89F
MCCOOK NEB     CLEAR     53  50  89 E7        29.89F
AKRON CO       CLEAR     55  34  45 S7        29.94F
BURLINGTON CO  CLEAR     45  35  68 SW6       29.91F
LIMON CO       CLEAR     39  32  76 NW3       29.99F
$$

...UNOFFICIAL OBSERVATIONS...

CITY           SKY/WX    TMP DP  RH WIND       PRES   REMARKS
COLBY KS       CLEAR     50  45  81 CALM      29.89F
NORTON KS      CLEAR     55  50  82 E5        29.87F
SHARON SPRINGS   N/A     55  42  61 S9          N/A
KIT CARSON CO    N/A     53  37  55 CALM        N/A
YUMA CO          N/A     41  33  72 W5          N/A
$$



USA.gov is the U.S. government's official web portal to all federal, state and local government web resources and services.